Hourly Weather Lowech

Today, 13 June, Sunday

Time Temperature Precipitation Wind Pressure Humidity
00:00 +15°C° 0 mm 2 mps 735 mmHg 85%
01:00 +15°C° 0 mm 2 mps 735 mmHg 85%
02:00 +15°C° 0 mm 2 mps 735 mmHg 85%
03:00 +15°C° 0 mm 2 mps 735 mmHg 85%
04:00 +15°C° 0 mm 2 mps 735 mmHg 86%
05:00 +15°C° 0 mm 2 mps 734 mmHg 86%
06:00 +17°C° 0 mm 2 mps 734 mmHg 82%
07:00 +19°C° 0 mm 3 mps 735 mmHg 77%
08:00 +21°C° 0 mm 3 mps 735 mmHg 73%
09:00 +20°C° 0.5 mm 4 mps 735 mmHg 78%
10:00 +20°C° 0.5 mm 5 mps 735 mmHg 83%
11:00 +19°C° 0.5 mm 6 mps 735 mmHg 88%
12:00 +20°C° 0.6 mm 6 mps 735 mmHg 84%
13:00 +20°C° 0.6 mm 6 mps 734 mmHg 81%
14:00 +21°C° 0.6 mm 7 mps 734 mmHg 77%
15:00 +21°C° 0.2 mm 7 mps 734 mmHg 72%
16:00 +21°C° 0.2 mm 8 mps 734 mmHg 66%
17:00 +21°C° 0.2 mm 8 mps 734 mmHg 60%
18:00 +20°C° 0.4 mm 7 mps 734 mmHg 65%
19:00 +17°C° 0.4 mm 6 mps 735 mmHg 70%
20:00 +15°C° 0.4 mm 4 mps 735 mmHg 74%
21:00 +14°C° 0.3 mm 4 mps 736 mmHg 80%
22:00 +13°C° 0.3 mm 3 mps 736 mmHg 85%
23:00 +13°C° 0.3 mm 2 mps 736 mmHg 90%

Tomorrow, 14 June, Monday

Time Temperature Precipitation Wind Pressure Humidity
00:00 +13°C° 0.3 mm 2 mps 736 mmHg 91%
01:00 +13°C° 0.3 mm 2 mps 736 mmHg 91%
02:00 +13°C° 0.3 mm 2 mps 736 mmHg 92%
03:00 +13°C° 0.2 mm 2 mps 736 mmHg 91%
04:00 +13°C° 0.2 mm 2 mps 736 mmHg 91%
05:00 +13°C° 0.2 mm 2 mps 736 mmHg 91%
06:00 +13°C° 0.2 mm 3 mps 736 mmHg 87%
07:00 +14°C° 0.2 mm 3 mps 736 mmHg 82%
08:00 +15°C° 0.2 mm 4 mps 736 mmHg 78%
09:00 +17°C° 0.3 mm 4 mps 736 mmHg 72%
10:00 +17°C° 0.3 mm 5 mps 736 mmHg 66%
11:00 +19°C° 0.3 mm 5 mps 736 mmHg 60%
12:00 +19°C° 0.3 mm 4 mps 736 mmHg 62%
13:00 +19°C° 0.3 mm 4 mps 736 mmHg 63%
14:00 +19°C° 0.3 mm 3 mps 735 mmHg 65%
15:00 +18°C° 0.6 mm 3 mps 735 mmHg 71%
16:00 +16°C° 0.6 mm 2 mps 735 mmHg 78%
17:00 +15°C° 0.6 mm 2 mps 735 mmHg 85%
18:00 +15°C° 0.4 mm 2 mps 735 mmHg 86%
19:00 +14°C° 0.4 mm 2 mps 735 mmHg 87%
20:00 +14°C° 0.4 mm 2 mps 735 mmHg 88%
21:00 +13°C° 1.2 mm 2 mps 736 mmHg 91%
22:00 +13°C° 1.2 mm 2 mps 736 mmHg 94%
23:00 +13°C° 1.2 mm 2 mps 737 mmHg 97%

Day after tomorrow, 15 June, Tuesday

Time Temperature Precipitation Wind Pressure Humidity
00:00 +13°C° 0.9 mm 2 mps 737 mmHg 97%
01:00 +12°C° 0.9 mm 2 mps 737 mmHg 97%
02:00 +12°C° 0.9 mm 2 mps 737 mmHg 96%
03:00 +12°C° 0 mm 2 mps 737 mmHg 95%
04:00 +12°C° 0 mm 2 mps 737 mmHg 95%
05:00 +12°C° 0 mm 2 mps 737 mmHg 94%
06:00 +13°C° 0 mm 2 mps 737 mmHg 90%
07:00 +13°C° 0 mm 3 mps 737 mmHg 85%
08:00 +14°C° 0 mm 3 mps 737 mmHg 81%
09:00 +17°C° 0 mm 3 mps 737 mmHg 75%
10:00 +18°C° 0 mm 4 mps 737 mmHg 70%
11:00 +19°C° 0 mm 4 mps 737 mmHg 64%
12:00 +19°C° 0.1 mm 4 mps 737 mmHg 62%
13:00 +20°C° 0.1 mm 4 mps 737 mmHg 60%
14:00 +20°C° 0.1 mm 4 mps 737 mmHg 58%
15:00 +20°C° 0 mm 3 mps 737 mmHg 60%
16:00 +20°C° 0 mm 3 mps 736 mmHg 61%
17:00 +20°C° 0 mm 2 mps 736 mmHg 62%
18:00 +19°C° 0 mm 2 mps 736 mmHg 65%
19:00 +18°C° 0 mm 2 mps 736 mmHg 67%
20:00 +17°C° 0 mm 2 mps 736 mmHg 70%
21:00 +16°C° 0 mm 2 mps 736 mmHg 70%
22:00 +16°C° 0 mm 2 mps 736 mmHg 70%
23:00 +15°C° 0 mm 2 mps 736 mmHg 70%

16 June, Wednesday

Time Temperature Precipitation Wind Pressure Humidity
00:00 +15°C° 0 mm 2 mps 736 mmHg 70%
01:00 +16°C° 0 mm 2 mps 736 mmHg 71%
02:00 +16°C° 0 mm 2 mps 736 mmHg 71%
03:00 +16°C° 0 mm 2 mps 736 mmHg 71%
04:00 +16°C° 0 mm 2 mps 736 mmHg 72%
05:00 +16°C° 0 mm 2 mps 736 mmHg 72%
06:00 +16°C° 0 mm 2 mps 736 mmHg 74%
07:00 +17°C° 0 mm 2 mps 737 mmHg 76%
08:00 +17°C° 0 mm 2 mps 737 mmHg 77%
09:00 +19°C° 0 mm 3 mps 737 mmHg 73%
10:00 +20°C° 0 mm 3 mps 737 mmHg 69%
11:00 +22°C° 0 mm 3 mps 737 mmHg 65%
12:00 +24°C° 0.1 mm 3 mps 737 mmHg 62%
13:00 +24°C° 0.1 mm 2 mps 737 mmHg 60%
14:00 +25°C° 0.1 mm 2 mps 737 mmHg 57%
15:00 +25°C° 0.2 mm 2 mps 737 mmHg 60%
16:00 +25°C° 0.2 mm 1 mps 737 mmHg 63%
17:00 +25°C° 0.2 mm 1 mps 737 mmHg 65%
18:00 +23°C° 0.1 mm 1 mps 737 mmHg 69%
19:00 +22°C° 0.1 mm 1 mps 737 mmHg 72%
20:00 +20°C° 0.1 mm 2 mps 737 mmHg 76%
21:00 +19°C° 0 mm 2 mps 737 mmHg 78%
22:00 +18°C° 0 mm 2 mps 737 mmHg 80%
23:00 +17°C° 0 mm 2 mps 738 mmHg 82%

17 June, Thursday

Time Temperature Precipitation Wind Pressure Humidity
00:00 +17°C° 0.1 mm 2 mps 738 mmHg 83%
01:00 +17°C° 0.1 mm 2 mps 738 mmHg 84%
02:00 +16°C° 0.1 mm 1 mps 738 mmHg 85%
03:00 +16°C° 0 mm 1 mps 738 mmHg 85%
04:00 +16°C° 0 mm 1 mps 738 mmHg 85%
05:00 +16°C° 0 mm 1 mps 738 mmHg 85%
06:00 +19°C° 0 mm 1 mps 738 mmHg 81%
07:00 +21°C° 0 mm 1 mps 738 mmHg 76%
08:00 +22°C° 0 mm 1 mps 739 mmHg 72%
09:00 +23°C° 0.1 mm 2 mps 739 mmHg 68%
10:00 +24°C° 0.1 mm 2 mps 739 mmHg 64%
11:00 +25°C° 0.1 mm 3 mps 739 mmHg 60%
12:00 +26°C° 0.3 mm 2 mps 739 mmHg 59%
13:00 +26°C° 0.3 mm 2 mps 739 mmHg 58%
14:00 +27°C° 0.3 mm 2 mps 739 mmHg 58%
15:00 +27°C° 0.2 mm 1 mps 738 mmHg 57%
16:00 +27°C° 0.2 mm 1 mps 738 mmHg 57%
17:00 +27°C° 0.2 mm 1 mps 738 mmHg 57%
18:00 +25°C° 0.1 mm 1 mps 738 mmHg 63%
19:00 +23°C° 0.1 mm 1 mps 738 mmHg 69%
20:00 +22°C° 0.1 mm 1 mps 738 mmHg 76%
21:00 +21°C° 0 mm 1 mps 738 mmHg 78%
22:00 +19°C° 0 mm 2 mps 738 mmHg 79%
23:00 +18°C° 0 mm 2 mps 739 mmHg 81%

18 June, Friday

Time Temperature Precipitation Wind Pressure Humidity
00:00 +18°C° 0 mm 2 mps 738 mmHg 82%
01:00 +19°C° 0 mm 1 mps 738 mmHg 82%
02:00 +18°C° 0 mm 1 mps 738 mmHg 82%
03:00 +18°C° 0 mm 1 mps 738 mmHg 83%
04:00 +18°C° 0 mm 1 mps 738 mmHg 83%
05:00 +18°C° 0 mm 1 mps 738 mmHg 83%
06:00 +19°C° 0 mm 1 mps 738 mmHg 79%
07:00 +21°C° 0 mm 1 mps 738 mmHg 76%
08:00 +23°C° 0 mm 1 mps 738 mmHg 72%
09:00 +24°C° 0.3 mm 2 mps 738 mmHg 71%
10:00 +24°C° 0.3 mm 2 mps 738 mmHg 70%
11:00 +25°C° 0.3 mm 2 mps 739 mmHg 69%
12:00 +26°C° 0.8 mm 2 mps 738 mmHg 68%
13:00 +26°C° 0.8 mm 2 mps 738 mmHg 66%
14:00 +26°C° 0.8 mm 1 mps 738 mmHg 65%
15:00 +26°C° 0.6 mm 2 mps 738 mmHg 69%
16:00 +25°C° 0.6 mm 2 mps 738 mmHg 72%
17:00 +25°C° 0.6 mm 2 mps 738 mmHg 76%
18:00 +23°C° 0.8 mm 2 mps 738 mmHg 80%
19:00 +21°C° 0.8 mm 2 mps 738 mmHg 85%
20:00 +19°C° 0.8 mm 2 mps 738 mmHg 89%
21:00 +19°C° 0 mm 2 mps 738 mmHg 91%
22:00 +18°C° 0 mm 2 mps 738 mmHg 92%
23:00 +18°C° 0 mm 2 mps 738 mmHg 93%
Show more